User: anonymous   Login
Location: Gombori
(14.9797°N, 2.9419°W)
Time: 15:18:55
(UTC+00:00)
Language:

USA 307 - Orbit

View from above orbital plane
View from above orbital plane
View from above satellite
View from above satellite

Ground track
Ground track

The orbit data is extracted from the following two-line orbital elements,

1 45875U 20046C   21270.77966572 0.00005251  00000-0  42541-3 0    07
2 45875  53.9739 181.4602 0021072  24.2094 335.7905 14.99085965    00
Epoch (UTC): 27 September 2021 18:42:43
Eccentricity: 0.0021072
inclination: 53.9739°
perigee height: 555 km
apogee height: 584 km
right ascension of ascending node: 181.4602°
argument of perigee: 24.2094°
revolutions per day: 14.99085965
mean anomaly at epoch: 335.7905°
orbit number at epoch: 0

The dashed part of the orbit path shows where the satellite is in the earth's shadow,  

DLR